Total_Precipitation_Accumulation
0.09 0.68 0.87 1.14 2.37 4.91 6.39 6.93 9.07 6.89 6.27 5.36 5.62 6.53 7.32 4.13 4.03 5.34 5.10 3.24 4.39 2.88 3.12 1.94 1.74 0.77 3.02 1.65 1.57 0.90 0.80 1.63 0.66 3.28 3.53 1.03 0.44 0.61 0.95 0.69 0.85 0.97 0.90 0.88 1.27 1.59 1.79 1.50 1.44 1.99 2.01 1.44 1.44 1.45 1.56 1.66 1.13 1.02 1.17 1.51 1.02 1.08 1.00 0.76 1.01 1.20 1.10 1.16 0.97 1.14 1.24 1.37 1.17 0.88 0.86 1.21 1.15 1.05 1.74 1.40 1.24 1.55 1.44 1.02 1.26 1.71 1.95 1.95 1.90 1.75 2.12 2.01 1.97 1.90 1.51 1.68 1.68
0.16 0.32 1.00 2.02 4.30 9.28 11.07 5.78 5.35 5.70 5.23 5.63 4.91 5.60 5.36 4.88 5.61 4.52 4.89 6.18 3.74 3.16 2.33 1.98 1.66 1.37 1.27 0.69 0.61 0.69 0.54 0.45 0.35 0.31 0.58 0.51 0.71 0.77 0.64 0.68 0.79 0.65 0.64 0.77 0.96 1.09 1.16 1.63 1.19 1.47 1.65 1.20 1.11 1.85 1.82 1.45 1.19 1.36 0.99 0.68 0.74 0.73 0.66 0.93 0.92 1.06 1.11 1.29 1.28 1.34 1.26 1.07 1.12 1.07 1.19 1.38 1.24 1.39 1.58 1.44 1.51 1.49 1.33 1.26 1.49 1.21 1.70 1.67 1.73 1.78 1.97 2.02 1.87 2.35 1.71 2.25 2.44
0.28 0.50 1.38 2.03 4.84 4.77 7.32 5.88 10.02 5.99 6.64 6.05 6.09 7.78 5.89 5.54 6.16 4.08 5.14 5.26 3.27 2.91 2.08 1.95 1.43 1.40 0.62 0.37 1.02 1.61 1.57 0.31 0.20 0.23 0.67 0.94 1.00 2.10 0.75 0.65 0.65 0.61 0.50 0.71 0.85 1.16 1.27 1.63 0.88 1.07 1.15 1.07 1.19 1.33 1.40 1.50 0.86 1.03 0.72 0.61 0.82 0.74 0.68 0.98 1.15 1.19 1.10 1.39 1.37 1.79 1.38 1.30 1.20 1.23 1.40 1.37 1.50 1.44 1.27 1.46 1.95 1.80 1.36 1.41 1.31 1.45 1.98 1.64 1.83 1.76 2.47 1.95 2.24 2.20 1.92 2.19 2.78
0.46 0.45 2.12 2.08 9.12 5.44 7.64 7.69 5.49 5.95 6.46 5.65 5.62 6.90 6.85 6.21 5.32 4.67 4.56 2.74 3.41 3.13 1.36 1.33 1.90 1.07 0.96 1.23 0.87 0.58 0.69 1.15 0.27 0.16 0.73 1.04 0.82 0.52 0.70 0.85 0.76 0.45 0.69 1.08 1.27 0.97 1.11 1.01 0.93 1.58 1.42 1.05 1.01 1.04 1.33 0.99 0.81 0.84 0.64 0.54 0.68 0.66 0.85 1.01 0.93 1.09 1.19 1.12 1.21 1.19 1.49 1.40 1.44 1.19 1.30 1.58 1.61 1.72 1.74 1.55 2.06 1.69 1.53 1.88 1.40 2.09 1.62 1.59 1.93 1.95 2.33 1.86 2.20 1.82 1.75 2.48 2.24
0.55 0.70 1.14 3.35 5.49 9.87 6.25 6.78 6.18 5.03 7.35 6.41 7.72 6.87 7.44 7.11 5.37 4.62 4.04 3.77 3.19 2.56 1.81 0.94 0.66 0.76 1.14 1.01 1.13 2.18 1.23 0.47 0.30 0.18 0.35 0.64 0.42 0.49 0.67 0.40 0.40 1.16 1.04 1.04 1.52 1.25 1.44 0.87 0.81 1.34 1.13 1.07 1.21 1.13 1.31 1.05 0.72 0.71 1.03 1.10 0.90 0.84 0.88 0.87 0.77 0.85 1.00 1.07 1.18 1.16 1.67 1.47 1.67 1.55 1.74 1.72 1.51 1.29 1.87 1.89 1.76 1.76 1.93 1.97 1.86 2.06 1.84 1.87 1.95 2.01 2.24 2.16 1.99 2.33 2.33 2.48 2.39
0.66 1.28 2.43 3.86 10.15 5.03 5.02 6.56 7.22 5.72 5.96 7.13 7.00 7.88 6.07 5.39 6.32 3.96 3.41 4.19 3.38 2.89 1.89 1.43 1.31 0.60 0.64 0.79 0.65 1.13 0.70 1.57 0.70 0.31 0.28 0.87 0.48 0.49 0.39 0.30 0.63 1.28 1.14 0.76 1.08 1.21 1.46 1.21 1.35 1.17 0.93 1.10 1.05 1.05 1.06 0.91 0.77 1.28 1.16 1.50 1.01 1.26 1.34 1.32 0.88 0.90 1.02 0.82 1.09 1.57 1.21 1.41 1.61 1.68 2.15 2.03 1.58 1.87 1.69 1.73 1.76 1.62 1.61 2.19 2.00 2.00 1.87 2.10 1.88 1.76 2.02 2.12 2.11 2.12 2.64 2.22 2.65
1.66 2.35 4.48 5.29 5.61 5.95 7.62 6.00 4.65 4.48 5.54 6.64 7.21 7.50 7.17 5.71 5.12 4.05 3.91 3.92 3.50 3.54 2.00 1.91 0.60 0.38 0.91 0.46 0.45 0.27 0.26 0.53 1.09 0.35 0.37 0.33 0.42 0.27 0.28 0.52 0.83 0.88 0.86 0.89 1.17 1.40 1.59 1.66 1.32 1.37 1.38 1.01 1.06 0.98 1.06 0.78 0.87 0.98 1.11 1.23 1.01 1.24 1.65 1.40 0.83 0.96 0.89 0.94 1.10 1.48 1.27 1.12 1.20 1.68 1.80 1.77 1.60 1.34 1.79 1.59 1.62 1.58 1.36 1.63 1.89 1.90 1.58 1.41 1.57 1.64 1.68 1.83 2.24 2.07 2.29 2.56 2.58
0.90 3.48 5.49 5.53 7.21 5.45 6.96 5.36 5.21 5.25 5.30 7.04 5.87 5.72 6.32 6.90 5.62 5.48 4.02 5.32 3.41 2.80 2.25 1.47 1.22 1.81 2.32 0.42 2.03 0.64 0.28 0.27 0.44 0.14 0.15 0.19 0.16 0.31 0.49 0.43 0.66 0.82 1.27 1.08 1.06 1.36 1.47 1.43 1.31 1.17 0.99 0.84 1.13 0.99 1.01 0.94 1.12 1.05 0.94 1.21 1.18 1.07 1.56 1.36 1.33 1.19 1.07 1.05 1.10 1.21 1.25 1.12 1.52 1.34 1.13 1.87 1.66 1.54 1.60 1.40 1.30 1.23 1.62 1.58 1.55 1.87 1.40 1.24 1.46 2.12 2.09 1.95 1.78 1.76 1.97 2.68 2.78
2.74 1.89 3.36 4.93 7.20 5.33 4.96 5.29 5.38 4.30 5.05 4.84 4.75 6.74 6.67 6.04 6.09 5.50 4.39 3.74 2.84 2.58 3.14 1.73 1.09 1.99 1.85 1.50 1.72 1.07 0.66 0.26 0.38 0.16 0.12 0.13 0.23 0.29 0.59 0.42 0.78 0.73 0.90 1.03 1.19 1.22 1.93 1.32 1.19 1.23 1.19 1.37 0.95 1.27 1.14 1.42 1.51 1.24 1.12 1.24 1.09 1.08 1.39 1.22 1.34 1.36 1.16 1.15 1.20 1.40 1.59 1.23 1.24 1.37 1.28 1.40 1.58 1.58 1.32 1.04 1.29 1.24 1.38 1.54 1.51 1.66 1.65 1.37 1.85 1.78 1.64 1.71 1.74 1.45 2.03 2.49 2.01
3.28 1.63 6.14 4.95 3.95 6.35 4.39 4.67 6.02 5.92 7.00 4.08 4.78 5.11 7.11 6.23 6.44 6.25 4.47 4.09 3.64 2.89 2.22 1.57 0.92 2.53 0.98 1.78 1.52 1.70 1.05 0.37 0.13 0.18 0.12 0.19 0.24 0.30 0.37 0.44 0.40 0.55 0.89 0.82 1.03 1.34 1.13 1.55 1.21 1.44 1.71 1.54 1.30 1.24 1.24 1.14 1.46 1.59 1.22 1.28 1.60 1.26 1.32 1.19 1.46 1.60 1.35 1.19 1.53 1.36 1.22 1.36 1.16 1.02 1.15 1.33 1.29 1.38 1.14 1.19 1.01 1.21 1.07 1.33 1.50 1.69 1.45 1.35 1.63 2.22 1.57 1.39 1.45 1.24 1.43 1.61 1.94
4.71 3.34 3.34 4.88 4.49 4.58 4.99 4.50 5.39 4.24 4.62 4.33 4.34 5.12 6.58 6.51 6.23 6.62 5.43 4.25 3.51 3.09 2.16 1.03 1.08 1.36 1.12 2.07 2.22 1.54 1.16 0.39 0.21 0.21 0.19 0.17 0.20 0.21 0.71 0.43 0.56 0.56 0.78 0.75 1.30 1.55 1.06 1.49 1.45 1.84 1.80 1.29 1.28 1.30 1.32 1.27 1.62 1.40 1.03 1.14 1.70 1.84 1.30 1.58 1.64 1.41 1.40 1.51 1.63 1.32 1.32 1.36 1.56 1.14 1.18 1.46 1.59 1.29 1.20 1.15 0.94 1.02 1.08 1.43 1.65 1.20 1.33 1.31 1.34 1.85 1.46 1.22 1.24 1.24 1.84 1.52 1.56
2.63 3.69 4.10 5.35 4.66 4.47 4.56 4.96 4.69 5.31 5.07 6.00 5.03 6.17 4.81 6.31 5.56 5.37 4.15 3.90 2.81 2.10 3.12 1.29 3.26 1.37 2.25 1.22 1.42 1.93 0.90 0.82 1.02 0.34 0.19 0.27 0.30 0.25 0.32 0.34 0.51 0.78 0.55 0.89 0.94 1.02 1.51 1.90 1.41 2.20 1.86 1.86 1.61 1.33 1.50 1.34 1.50 1.30 1.47 1.25 1.26 1.72 1.63 1.31 1.20 1.53 1.34 1.50 1.43 1.45 1.27 1.33 1.31 1.20 1.34 1.35 1.55 1.26 1.39 1.24 1.02 1.08 1.10 1.41 1.58 1.02 1.13 1.28 1.39 1.45 1.38 1.16 1.30 1.27 1.70 1.38 1.21
2.21 3.08 5.55 4.46 3.96 4.45 4.23 4.38 5.05 5.11 4.39 5.61 6.28 4.78 4.40 4.34 6.18 5.54 4.64 3.32 3.19 2.46 2.56 2.08 1.47 1.45 2.61 2.54 1.73 1.60 1.08 0.78 0.62 0.17 0.28 0.20 0.29 0.23 0.38 0.40 0.46 0.66 0.67 0.76 0.88 1.53 1.29 1.50 1.52 2.09 2.00 2.36 2.12 1.66 1.79 1.87 1.44 1.31 1.48 1.36 1.67 1.43 1.62 1.78 1.46 1.60 1.32 1.51 1.50 1.57 1.30 1.46 1.85 1.16 1.03 1.04 1.12 1.30 1.24 1.27 1.18 1.03 1.11 1.15 1.12 0.98 1.28 1.10 1.31 1.79 1.29 1.30 1.61 1.55 2.02 1.89 1.60
1.06 2.43 3.40 5.18 3.14 4.65 5.03 5.46 4.69 4.86 5.45 4.85 4.88 3.96 4.87 4.73 5.14 5.14 3.48 3.65 2.61 3.35 2.71 1.88 1.61 1.29 2.13 1.19 2.26 1.84 1.10 0.88 0.56 0.26 0.17 0.40 0.49 0.50 0.38 0.32 0.39 0.60 0.69 1.12 1.38 1.22 1.82 1.70 1.86 1.61 2.10 2.39 3.22 2.40 2.46 1.89 1.49 1.75 1.80 1.27 1.45 1.65 1.68 1.68 1.78 1.59 1.55 1.47 1.50 1.51 1.79 1.82 1.73 1.30 1.33 0.87 1.31 1.36 1.08 1.13 1.13 1.07 1.06 1.10 1.25 1.43 1.03 1.24 1.63 1.83 1.64 1.30 1.66 1.58 1.73 1.62 1.57
2.64 1.93 4.33 3.47 4.19 3.26 3.39 4.98 3.85 3.61 7.19 5.46 3.39 4.36 3.99 5.02 4.44 3.29 3.86 2.85 2.88 1.85 1.64 1.48 1.81 1.45 3.21 1.75 1.48 1.15 0.43 1.21 0.54 0.52 0.43 0.48 0.43 0.54 0.58 0.35 0.46 0.53 0.76 1.17 1.18 1.74 2.04 2.04 1.56 1.66 2.28 1.96 2.17 2.53 2.96 2.55 2.16 1.93 1.85 1.82 1.76 1.64 1.37 1.54 1.79 1.83 2.03 1.63 1.72 1.79 2.25 1.96 1.61 1.51 1.05 0.92 0.95 0.97 1.07 1.06 1.12 1.09 1.11 0.83 1.17 1.17 1.36 1.59 1.31 1.64 1.58 1.59 1.58 1.90 1.71 1.33 1.24
1.57 2.03 3.88 4.96 3.81 4.51 2.79 3.58 3.97 3.63 4.52 4.77 3.67 3.25 3.16 2.42 2.80 3.08 2.37 3.53 2.10 1.72 1.62 2.87 0.75 2.89 1.45 1.65 1.46 0.66 0.38 0.85 0.64 1.26 0.50 0.69 0.70 0.52 0.50 0.48 0.56 0.71 1.49 1.47 1.55 1.76 1.97 1.91 1.84 1.66 1.89 1.49 2.05 1.99 2.48 2.01 2.21 1.96 2.29 1.87 2.15 2.19 1.53 1.69 1.52 1.67 1.79 1.93 1.84 1.74 2.10 1.97 1.75 1.10 1.33 0.94 1.32 1.20 1.38 1.35 1.07 1.04 1.00 1.05 1.00 1.11 1.33 1.20 1.51 1.70 2.02 1.82 1.66 1.81 1.70 1.24 1.30
0.32 1.39 3.15 3.94 4.46 3.02 3.03 2.82 2.26 6.07 3.45 3.27 3.04 3.49 3.28 3.15 2.19 2.96 2.02 1.66 1.65 1.34 1.50 0.88 2.04 1.05 1.98 1.53 1.13 0.25 0.27 0.81 1.18 1.58 0.96 0.61 0.87 0.86 1.01 0.95 0.77 0.99 1.12 0.97 1.50 1.80 2.30 1.91 1.55 1.60 1.70 1.52 1.59 2.18 2.06 1.82 1.88 2.12 2.18 2.22 2.08 1.97 1.64 1.69 1.53 1.54 2.03 1.99 1.67 1.98 1.53 1.39 1.35 1.47 1.26 1.51 0.78 1.35 1.08 1.18 1.13 0.90 0.95 1.25 1.04 1.19 1.07 1.47 1.67 1.65 1.68 1.72 1.72 1.75 1.71 1.54 1.63
1.22 2.84 3.89 4.10 3.92 3.90 2.14 2.92 2.41 2.80 4.10 2.68 2.37 2.48 3.18 2.57 1.73 1.98 2.41 1.97 2.15 1.17 1.47 0.63 0.82 0.90 1.08 1.30 1.26 1.00 0.34 0.51 0.84 1.33 1.08 0.46 0.59 0.67 0.82 0.76 0.67 0.81 1.08 1.23 1.61 1.33 1.47 1.45 1.43 1.55 1.83 1.76 1.79 1.33 1.29 1.67 2.11 2.26 2.15 2.76 2.10 1.96 1.66 1.85 1.67 1.56 1.74 1.87 2.17 1.94 1.56 1.27 1.15 1.64 1.29 1.03 1.29 1.00 1.13 0.82 0.79 0.94 1.21 0.79 1.34 1.21 1.44 1.57 1.66 1.51 1.72 1.50 1.32 1.17 1.28 2.14 2.37
0.82 1.80 3.13 4.16 2.89 2.72 1.87 2.00 1.48 3.49 3.66 2.46 2.98 2.48 3.23 2.59 2.27 1.26 2.33 1.89 1.96 1.43 1.26 1.27 1.12 0.95 1.10 1.08 1.39 1.52 0.74 0.78 0.71 1.15 0.93 0.35 0.38 0.26 0.31 0.40 0.52 0.81 1.17 1.02 1.12 1.02 0.85 1.02 1.03 1.26 1.51 1.47 1.26 1.59 1.16 1.57 1.56 2.04 2.10 1.99 2.35 2.39 2.21 1.97 1.57 1.60 1.74 1.47 1.44 1.58 1.88 1.30 1.02 1.01 1.11 0.57 0.80 0.60 0.48 0.55 0.71 0.96 0.94 0.95 1.37 1.24 1.35 1.53 1.93 2.02 1.98 1.59 1.59 1.42 1.93 2.49 2.23
0.59 0.98 2.31 1.78 1.34 2.02 2.04 1.78 1.40 1.60 1.95 2.75 2.17 2.00 3.18 2.08 2.01 1.61 2.55 1.56 1.27 2.01 2.01 1.39 1.25 0.98 0.95 0.99 0.91 1.14 1.43 0.86 0.79 0.89 2.13 1.10 1.03 0.59 0.72 0.34 0.52 0.49 0.42 0.54 0.56 0.97 0.97 0.90 0.93 0.86 1.22 1.26 1.18 1.27 1.55 1.09 1.92 2.13 1.74 2.11 1.81 1.59 1.57 1.53 1.45 1.41 1.70 1.42 1.16 1.31 1.10 1.06 1.01 1.10 0.67 0.47 0.60 0.81 1.04 0.71 0.91 0.93 0.92 0.94 1.16 2.04 1.71 1.44 1.81 1.60 1.25 1.22 1.43 2.30 2.54 2.41 2.97
0.57 0.77 1.88 1.07 0.92 2.23 1.77 1.85 1.67 1.29 1.90 2.23 2.14 1.41 1.97 2.14 2.74 2.13 2.17 1.95 1.89 2.18 1.96 1.30 1.36 0.90 0.76 0.93 0.83 1.20 1.20 1.53 1.03 1.13 1.49 1.30 1.13 0.83 0.28 0.36 0.52 0.41 0.36 0.32 0.51 0.46 0.60 0.68 0.64 1.19 0.95 1.08 1.36 1.87 1.50 1.33 1.49 1.95 1.95 1.66 1.44 1.40 1.08 0.76 0.84 1.03 1.27 1.50 1.39 1.69 0.94 0.88 0.85 0.61 0.61 0.54 0.68 0.69 0.86 1.09 1.61 1.69 1.45 1.73 0.83 2.01 2.43 2.87 2.06 2.35 3.21 2.71 3.02 3.22 3.13 3.41 3.08
0.06 0.49 0.66 0.90 1.08 1.95 1.17 1.34 0.99 0.99 1.64 2.10 1.94 2.13 2.86 1.36 1.93 2.43 3.33 4.83 2.38 2.96 0.96 0.79 0.78 0.98 0.90 0.60 0.55 1.01 1.21 1.53 1.22 1.32 1.11 1.33 0.55 0.88 0.80 1.01 0.53 0.33 0.22 0.29 0.30 0.44 0.49 0.44 0.62 0.55 0.70 0.95 0.96 1.33 1.12 1.17 0.92 1.70 2.16 1.81 1.27 1.30 0.94 0.63 0.75 0.99 1.28 1.45 1.39 1.20 0.94 0.64 0.55 0.46 0.47 0.49 0.46 0.50 0.50 0.98 1.27 1.89 1.13 1.69 2.27 2.54 2.09 1.76 2.42 2.53 3.45 2.20 2.96 3.09 2.55 2.95 2.82
0.82 0.24 0.22 0.25 0.52 0.96 1.26 1.34 0.80 1.18 1.76 1.58 2.47 2.77 1.71 2.24 3.27 2.14 2.05 3.78 2.19 1.39 0.72 0.39 0.29 0.46 0.65 1.00 0.91 0.96 1.86 1.30 1.52 2.37 1.92 1.51 1.75 0.87 0.95 0.66 0.44 0.43 0.29 0.28 0.27 0.29 0.26 0.41 0.45 0.59 0.98 0.77 0.67 0.96 1.38 1.40 1.40 1.97 1.41 1.40 1.21 0.84 1.05 0.84 1.01 0.75 0.79 0.68 1.10 0.80 0.74 0.81 0.57 0.36 0.35 0.39 0.49 0.49 0.39 0.66 1.44 0.84 1.28 1.89 2.47 2.15 1.75 2.00 1.85 2.43 2.09 2.89 2.39 2.57 3.06 2.38 2.64
0.03 0.57 0.14 0.23 0.22 0.64 1.00 1.91 1.59 2.47 2.65 2.61 2.57 1.55 2.08 2.52 2.73 1.92 2.27 1.27 1.02 0.94 0.60 0.57 0.23 0.50 0.37 0.57 0.77 1.44 1.31 2.41 2.53 2.92 3.00 2.59 3.00 1.82 1.70 1.10 0.61 0.58 0.43 0.30 0.27 0.30 0.40 0.42 0.42 0.44 0.59 0.60 0.89 0.89 1.28 1.06 1.30 1.45 1.17 1.24 1.84 1.42 1.50 1.07 0.85 0.71 0.45 1.06 0.62 1.20 0.71 0.38 0.36 0.30 0.30 0.34 0.21 0.28 0.31 0.49 0.31 0.29 0.54 1.65 2.60 1.53 2.20 1.87 1.90 0.95 1.24 1.97 2.07 3.02 2.32 2.37 2.28
0.44 0.86 0.51 0.41 0.24 0.53 0.98 1.76 3.09 2.77 2.82 3.08 2.64 1.94 2.26 2.55 2.80 1.94 2.82 1.70 0.86 1.17 0.74 0.66 0.47 0.53 0.53 0.52 0.70 0.88 1.55 2.41 3.06 3.66 2.59 3.54 3.10 3.58 2.44 1.40 0.46 0.31 0.35 0.19 0.28 0.40 0.38 0.47 0.48 0.49 0.47 0.45 0.48 0.68 0.77 0.98 1.74 1.50 1.70 1.68 1.80 1.68 1.28 1.19 0.93 0.74 0.45 0.79 0.98 0.72 0.69 0.43 0.33 0.24 0.27 0.33 0.35 0.18 0.26 0.19 0.47 0.50 0.52 0.76 1.16 2.15 1.89 1.97 2.10 2.14 2.91 2.47 3.23 3.40 4.14 2.93 1.57
0.09 0.12 0.25 0.54 0.46 0.44 1.35 1.41 1.88 1.98 2.95 2.95 2.60 2.53 2.65 2.01 2.17 2.46 2.65 1.36 1.10 0.72 0.61 0.52 0.33 0.14 0.25 0.63 1.00 1.46 1.43 1.65 2.82 2.11 2.45 3.51 2.93 2.43 1.53 1.33 0.63 0.18 0.59 0.66 0.40 0.51 0.44 0.54 0.64 0.41 0.35 0.61 0.55 0.78 0.72 1.18 1.73 1.43 1.30 1.30 1.14 1.25 1.03 1.25 0.83 0.64 0.73 0.47 0.77 0.81 0.51 0.31 0.25 0.14 0.13 0.14 0.30 0.17 0.25 0.33 0.32 0.36 0.57 0.62 0.86 1.21 1.40 1.62 1.48 1.42 1.91 2.86 2.45 2.37 2.41 2.57 1.45
0.01 0.06 0.17 0.35 0.65 0.81 0.77 1.47 1.44 2.18 3.09 2.81 3.10 2.59 2.39 2.49 1.74 3.49 1.43 1.29 1.01 0.68 0.62 0.62 0.55 0.50 0.39 0.48 0.63 1.30 1.93 2.74 2.84 4.44 3.44 2.98 3.32 2.65 2.82 1.33 0.93 0.66 0.57 0.35 0.54 0.35 0.32 0.37 0.36 0.56 0.39 0.36 0.49 0.54 0.47 0.84 1.34 1.32 1.38 1.28 1.40 1.08 1.03 1.23 1.32 0.87 0.78 0.71 0.59 0.56 0.47 0.24 0.20 0.13 0.19 0.22 0.22 0.28 0.37 0.65 0.49 0.56 0.52 0.51 0.47 0.54 1.20 1.28 0.71 1.46 1.54 1.71 2.62 1.76 2.10 2.08 1.96
0.04 0.26 0.17 0.34 0.84 1.16 1.09 1.26 1.53 2.14 3.31 3.39 2.73 3.14 2.50 2.44 1.51 3.42 1.73 0.86 1.09 1.09 0.73 0.51 1.23 0.95 0.51 0.47 0.63 1.53 1.76 2.22 2.26 2.61 2.16 2.08 2.44 2.43 2.16 1.57 1.29 1.34 1.40 0.81 0.64 0.20 0.24 0.26 0.58 0.89 0.43 0.26 0.25 0.42 0.75 0.50 0.61 1.04 1.13 0.83 0.94 0.74 1.15 1.25 0.74 0.91 0.86 0.51 0.45 0.80 0.44 0.21 0.23 0.24 0.16 0.20 0.14 0.21 0.24 0.45 0.71 0.90 1.09 0.37 0.42 0.69 0.86 1.74 1.34 1.24 0.70 1.33 1.43 1.90 2.57 2.03 2.58
0.32 0.22 1.06 0.66 0.65 1.18 1.29 1.50 2.32 1.73 2.54 3.61 3.98 3.37 2.82 1.72 2.51 1.67 0.91 1.05 1.55 1.30 1.10 1.13 0.55 0.79 0.38 0.41 0.65 1.11 1.35 1.71 1.72 1.94 2.00 2.75 3.40 3.07 2.07 1.88 2.50 1.95 1.87 1.90 0.96 0.30 0.32 0.56 1.04 1.05 0.63 0.37 0.33 0.44 0.54 0.37 0.54 0.77 0.54 0.78 0.96 0.76 1.15 0.84 0.76 1.02 0.46 0.89 0.58 0.45 0.33 0.30 0.12 0.13 0.10 0.16 0.24 0.42 0.55 0.50 0.87 0.80 0.70 0.62 0.86 0.93 0.75 0.62 0.76 1.37 1.75 1.87 2.35 1.91 1.85 1.76 2.75
0.16 0.61 1.09 0.77 1.04 1.58 1.32 1.76 2.24 1.62 2.21 2.28 3.24 4.02 2.96 2.75 2.00 1.39 1.08 1.53 1.45 1.59 1.75 1.09 0.92 0.66 0.80 0.67 0.58 1.05 1.08 1.67 1.35 2.27 1.98 1.81 2.79 3.01 3.32 3.37 2.73 2.69 2.34 1.96 0.95 0.60 0.56 0.88 0.90 1.33 1.14 1.04 0.83 0.97 1.46 0.85 0.88 0.69 0.91 0.72 0.98 0.68 0.82 1.00 0.67 0.47 0.36 0.45 0.55 0.52 0.29 0.16 0.25 0.23 0.22 0.25 0.37 0.50 0.56 0.44 0.75 0.65 0.61 1.18 1.36 1.37 1.06 0.86 0.87 1.37 1.87 1.45 1.96 2.23 2.11 1.98 2.49
0.40 1.02 0.54 1.53 1.15 2.09 0.76 1.41 1.95 2.44 2.17 2.77 1.41 3.68 4.01 2.90 1.70 1.63 1.68 1.59 1.57 1.49 1.44 1.13 1.50 1.28 0.96 0.70 0.75 1.03 1.12 1.43 1.57 2.49 2.30 2.45 3.07 2.24 2.32 2.26 2.56 2.61 1.80 1.73 0.75 0.78 0.92 1.19 1.91 1.62 1.13 1.24 0.73 0.91 1.34 1.01 1.51 1.22 1.24 1.10 1.05 0.90 0.80 1.02 0.86 1.55 0.50 0.49 0.40 0.42 0.44 0.59 0.51 0.32 0.56 0.35 0.28 0.28 0.45 0.59 1.00 0.87 0.91 1.10 0.94 0.95 1.67 1.06 0.67 0.74 1.56 1.99 2.22 1.97 1.99 2.47 1.99
0.38 0.38 0.95 0.54 0.40 1.87 1.16 0.85 0.80 1.80 1.56 1.83 1.25 3.09 3.04 2.60 2.53 1.36 1.18 1.65 2.35 2.13 1.45 1.50 1.18 0.92 1.48 1.73 0.95 1.10 1.21 0.87 1.21 1.83 1.98 1.85 2.07 2.01 2.40 2.43 2.74 3.24 2.81 1.85 1.57 1.13 1.10 1.34 1.30 1.03 2.07 1.37 1.04 0.97 0.97 1.10 1.10 0.82 1.01 1.03 1.31 1.43 1.13 1.11 0.88 0.81 0.64 0.54 0.96 0.93 0.89 0.82 0.77 0.76 0.70 0.71 0.51 0.49 0.42 0.57 0.98 1.87 1.20 1.30 0.91 1.09 1.47 1.22 0.98 0.69 0.88 1.12 1.13 1.74 2.15 2.12 1.82
0.47 0.14 0.32 0.32 0.44 1.04 1.38 0.72 0.97 1.40 0.86 1.59 1.73 3.02 2.58 3.14 2.55 2.15 1.65 1.99 1.92 2.22 1.66 1.16 0.99 0.98 1.06 0.95 1.27 0.69 0.86 1.12 1.31 1.38 1.44 1.64 1.80 1.56 1.98 2.82 2.52 2.83 2.51 2.37 1.41 1.56 1.46 1.40 1.11 1.04 1.31 0.90 1.08 1.21 1.62 1.07 1.33 0.97 1.34 0.98 1.00 1.50 1.45 1.14 0.94 0.63 0.28 1.10 1.92 1.51 1.53 1.40 0.89 0.83 1.23 0.86 0.79 0.69 0.54 0.67 0.86 1.21 2.08 1.39 1.04 1.30 1.50 1.45 1.30 1.62 1.31 1.56 1.31 1.22 1.30 1.00 1.56
0.15 0.08 0.16 0.16 0.37 0.37 1.21 0.81 1.25 1.11 0.82 1.96 1.43 2.05 2.48 1.87 1.60 1.72 1.48 1.71 1.84 2.35 1.86 1.39 1.33 1.26 0.60 1.13 0.47 0.61 0.63 1.19 0.70 1.29 1.31 1.06 1.82 1.80 2.42 2.34 2.57 2.18 2.31 1.75 2.04 2.63 2.71 2.73 1.37 1.90 2.40 2.31 2.03 2.43 2.30 1.89 2.23 2.25 2.04 1.74 1.65 1.82 1.57 0.90 1.27 0.97 0.87 1.25 1.25 1.21 1.30 1.21 1.64 1.49 1.91 1.68 1.34 0.58 0.71 0.95 1.21 1.17 0.87 1.13 1.24 1.16 1.02 1.37 1.49 2.27 1.98 1.88 1.75 1.73 1.52 1.11 1.75
0.07 0.07 0.12 0.37 0.54 0.32 0.92 0.72 0.86 0.68 0.78 1.03 1.11 1.40 2.51 2.13 1.64 1.20 1.14 1.32 1.69 1.59 1.84 1.78 1.36 1.11 0.58 1.21 1.26 1.36 1.32 0.83 0.83 1.29 1.17 1.40 2.32 2.23 2.03 2.19 2.36 1.91 2.00 2.54 1.81 2.01 2.67 4.04 3.06 2.48 2.43 3.35 3.46 3.47 2.37 2.47 2.68 2.42 2.13 1.97 1.98 2.13 1.55 1.23 1.89 1.53 1.00 0.89 1.42 1.99 1.96 1.63 1.37 1.78 1.90 2.50 1.54 0.77 0.58 0.67 0.68 0.90 1.20 0.79 0.94 1.47 1.70 2.07 2.16 2.35 1.98 1.86 1.65 1.72 1.32 1.45 1.54
0.03 0.03 0.19 0.15 0.32 0.87 0.60 0.61 0.25 0.17 0.70 1.37 1.07 1.48 2.17 1.94 1.69 1.48 1.50 1.06 1.49 2.62 2.00 2.10 1.27 1.50 0.71 0.91 1.20 0.69 1.27 1.07 0.79 1.03 0.97 1.60 1.39 1.60 1.74 2.28 2.30 1.98 2.60 2.99 2.04 2.11 1.87 2.42 3.46 3.12 2.48 3.34 3.07 3.53 3.08 2.49 2.35 2.07 1.75 1.99 1.87 2.18 2.00 2.05 2.05 1.88 1.25 1.42 1.46 1.84 2.02 2.11 1.92 1.73 1.27 1.58 1.47 1.26 1.19 1.00 0.76 0.72 0.86 1.30 1.10 1.31 1.51 2.06 2.13 1.83 1.33 1.41 1.38 1.17 1.02 1.34 1.23
0.01 0.00 0.07 0.27 0.44 0.35 0.47 0.56 0.34 0.50 0.83 1.10 1.09 0.96 1.47 2.00 1.45 1.50 1.28 1.28 2.15 2.38 1.49 1.61 1.47 1.34 1.11 0.86 0.85 0.89 0.88 1.28 0.72 1.64 1.20 1.87 2.50 2.80 2.83 3.62 4.33 2.73 1.81 2.18 2.89 1.93 2.05 2.32 2.19 1.77 2.02 2.49 2.52 2.09 1.75 1.92 1.71 1.94 1.69 1.31 1.95 2.46 2.24 2.37 1.91 1.92 1.32 1.07 1.04 1.37 1.50 1.47 1.69 1.40 1.13 1.44 1.63 1.71 1.25 1.59 1.45 1.34 1.34 0.96 0.81 1.27 1.39 1.59 1.13 1.15 1.12 1.37 1.79 1.04 1.46 1.53 1.49
0.01 0.03 0.11 0.49 0.21 0.58 0.55 0.56 0.87 1.21 1.38 1.79 0.70 1.27 1.29 1.89 2.11 1.50 1.92 1.71 1.62 2.11 2.46 1.76 1.45 0.98 1.07 1.53 0.91 1.24 1.28 1.31 1.40 1.32 1.48 1.84 1.74 2.25 2.81 3.47 3.65 2.60 2.30 2.45 2.94 3.49 2.78 2.28 2.74 2.12 2.20 2.39 2.59 2.72 2.09 2.00 1.88 2.01 2.06 2.25 1.95 1.81 1.53 1.97 1.70 1.70 1.42 1.39 1.25 1.09 1.36 1.49 1.47 1.58 1.03 1.42 1.74 1.41 1.11 1.02 1.29 1.40 1.15 1.06 0.70 1.12 1.17 1.16 1.11 1.41 0.84 1.23 1.00 0.81 0.84 1.00 1.57
0.00 0.03 0.28 0.25 0.55 0.56 0.49 0.54 0.52 1.92 1.18 1.94 1.23 1.42 1.37 1.62 2.09 2.54 1.41 1.01 0.95 1.25 1.85 2.67 1.60 1.71 1.09 1.22 1.18 1.96 1.08 1.76 1.49 1.50 1.24 1.81 1.49 1.88 2.62 2.60 2.99 3.32 5.20 3.38 3.60 4.07 3.03 2.61 2.28 2.71 2.60 3.01 3.42 3.01 2.87 2.54 2.25 2.85 2.48 3.07 2.36 2.98 2.27 1.98 2.02 2.15 2.13 1.55 1.33 1.02 0.67 1.10 1.10 1.08 0.95 1.15 1.95 1.35 1.29 1.47 1.18 1.02 0.98 0.84 0.73 0.97 0.99 1.36 1.33 1.13 1.11 0.96 0.91 1.10 0.85 0.90 1.35
0.00 0.04 0.04 0.21 0.16 0.22 0.73 0.70 0.21 0.80 0.50 0.91 1.11 1.41 2.04 2.49 2.37 2.09 2.16 1.10 1.83 1.30 1.74 2.75 2.91 2.94 1.08 0.64 1.23 0.93 1.24 1.68 1.96 1.58 1.76 1.58 1.23 1.89 1.63 1.85 2.27 2.55 3.30 3.55 3.87 2.51 2.27 2.37 2.44 2.48 2.96 3.03 2.75 2.09 2.00 3.20 2.78 2.54 2.45 2.44 2.70 2.56 2.60 2.32 2.00 1.76 1.54 1.09 0.86 0.46 0.45 0.49 0.52 0.63 0.69 0.65 1.22 1.17 1.52 1.44 0.91 0.93 0.82 0.80 0.81 0.65 0.41 0.76 1.36 1.10 0.66 0.63 0.54 0.46 0.45 1.17 1.00
0.00 0.01 0.02 0.05 0.05 0.12 0.04 0.49 0.34 0.75 0.60 0.53 1.42 1.18 2.67 2.40 2.22 2.08 2.21 1.95 2.10 1.74 1.64 1.99 1.96 2.21 1.28 1.65 1.35 1.35 1.52 1.95 1.64 1.60 1.78 2.00 1.64 1.34 1.74 1.75 1.88 3.29 3.17 3.34 3.20 2.79 2.08 1.82 2.24 2.89 3.35 2.59 3.16 3.16 3.20 3.28 2.76 2.81 2.90 2.79 2.83 2.54 2.07 1.34 1.68 1.15 0.74 0.56 0.54 0.52 0.61 0.49 0.53 0.50 0.62 0.65 0.80 0.99 1.07 1.05 0.88 0.90 0.71 0.77 0.79 0.62 0.42 0.48 0.62 0.53 0.45 0.64 0.74 0.83 0.69 0.61 1.12
0.00 0.00 0.00 0.00 0.01 0.23 0.02 0.13 0.33 0.38 0.81 0.68 0.60 1.09 1.64 1.83 1.39 1.18 1.45 1.74 1.87 1.30 1.06 1.20 1.77 2.45 2.49 1.69 1.26 1.34 1.38 2.00 1.43 1.20 1.68 1.20 1.27 1.42 1.54 1.82 2.09 2.59 1.78 2.79 3.99 3.58 2.08 1.93 1.91 2.43 3.60 3.25 3.46 3.14 3.01 3.70 3.48 2.10 1.96 2.53 2.21 1.81 1.80 0.90 0.97 0.69 0.85 0.58 0.71 0.63 1.19 0.81 0.66 0.94 0.81 0.76 1.16 0.92 0.94 0.76 1.19 1.31 0.60 0.40 0.38 0.44 0.35 0.33 0.34 0.44 0.60 0.49 0.66 0.77 0.42 0.37 0.64
0.00 0.01 0.00 0.00 0.00 0.02 0.12 0.57 1.05 0.24 0.43 1.11 0.46 0.66 1.38 0.93 1.63 1.20 1.04 0.99 1.12 1.80 1.37 1.11 1.61 1.78 1.69 1.70 1.85 1.17 1.48 2.15 1.55 1.57 0.90 1.30 0.88 1.28 0.99 1.44 1.02 1.31 1.39 2.83 2.66 2.44 1.99 2.39 1.86 1.71 3.14 4.21 4.06 3.61 4.48 3.63 3.73 3.40 2.95 2.59 2.48 2.15 1.22 1.09 1.00 1.11 0.92 0.84 0.77 0.88 0.86 1.30 0.78 0.74 0.92 1.09 0.69 0.78 0.87 0.87 0.72 0.61 0.67 0.68 0.45 0.48 0.45 0.45 0.38 0.60 0.40 0.38 0.31 0.59 0.51 0.22 0.12
0.00 0.00 0.00 0.01 0.00 0.05 0.17 0.16 0.20 0.14 0.02 0.53 0.26 0.26 0.49 0.98 1.05 0.63 0.77 0.66 0.73 1.09 1.13 1.34 1.64 1.65 1.65 1.57 1.10 1.20 0.93 0.92 1.42 1.76 1.75 1.57 1.59 1.09 1.86 1.07 1.25 1.95 1.92 1.64 1.27 1.98 1.59 1.88 1.58 1.48 2.03 2.43 3.07 2.36 2.92 4.55 4.04 4.19 3.72 3.01 2.05 2.02 1.86 2.35 2.45 1.99 1.30 1.09 0.99 0.67 0.93 1.17 0.62 0.88 0.96 0.95 0.99 1.22 0.79 0.73 0.63 0.54 0.55 0.38 0.45 0.26 0.37 0.35 0.53 0.47 0.62 0.62 0.31 0.41 0.31 0.22 0.22
0.01 0.00 0.01 0.01 0.00 0.01 0.01 0.01 0.05 0.05 0.22 0.50 0.37 0.39 0.65 0.62 0.69 0.57 0.85 1.23 0.96 0.70 0.91 0.73 1.36 1.10 1.47 1.51 1.07 0.88 0.57 0.70 1.36 1.75 1.73 1.20 1.37 1.52 1.43 1.11 1.23 2.13 1.89 1.34 1.52 1.13 1.15 1.63 1.57 1.81 1.73 2.42 3.04 2.21 3.20 3.05 4.16 3.75 3.22 2.55 2.16 1.99 2.32 2.02 2.10 1.58 1.46 1.09 1.00 0.87 0.91 1.09 0.67 0.60 0.38 0.58 0.76 0.64 0.95 0.65 0.59 0.60 0.46 0.30 0.32 0.29 0.24 0.28 0.31 0.39 0.52 0.41 0.38 0.23 0.36 0.23 0.23
0.00 0.00 0.00 0.02 0.00 0.01 0.06 0.03 0.17 0.32 0.11 0.30 0.47 0.20 0.37 0.78 0.73 1.21 1.31 0.82 0.91 1.00 1.13 0.98 0.93 1.22 1.06 1.20 0.81 1.04 0.68 0.83 1.02 1.40 1.52 1.47 1.43 1.43 1.11 1.35 1.61 2.03 1.32 1.22 1.32 1.14 1.51 1.40 1.35 1.28 3.00 2.71 2.42 2.37 2.49 2.98 3.53 4.13 3.70 3.15 2.00 1.92 1.78 1.90 1.60 1.33 1.37 1.82 1.70 1.16 1.15 1.20 0.94 0.70 0.56 0.75 0.49 0.53 0.70 0.63 0.65 0.47 0.32 0.25 0.38 0.34 0.31 0.40 0.28 0.26 0.20 0.24 0.31 0.28 0.16 0.17 0.17
0.00 0.00 0.02 0.06 0.00 0.02 0.01 0.02 0.13 0.23 0.23 0.28 0.15 0.15 0.05 0.64 0.99 1.45 1.54 0.88 0.42 0.55 0.87 1.13 1.28 1.21 1.02 0.70 1.29 0.68 0.58 0.67 0.87 1.11 1.62 2.20 1.68 2.16 1.59 1.57 1.48 1.83 1.53 1.75 1.34 1.34 1.93 1.46 1.13 2.54 2.84 2.38 2.71 2.38 2.40 2.60 2.47 2.43 2.82 2.37 2.07 1.58 1.52 1.83 1.75 1.22 2.30 1.94 1.44 1.51 1.06 0.91 1.10 0.57 0.89 0.54 0.57 0.35 0.23 0.32 0.41 0.40 0.39 0.30 0.18 0.33 0.30 0.33 0.27 0.24 0.31 0.26 0.17 0.17 0.13 0.15 0.10
0.00 0.00 0.03 0.01 0.06 0.08 0.64 0.88 0.62 0.27 0.20 0.08 0.13 0.04 0.02 0.52 1.18 0.68 0.60 0.49 0.57 0.60 0.88 0.86 0.67 0.72 0.61 0.93 1.60 0.53 0.70 0.63 0.79 1.39 1.87 1.60 1.77 1.74 1.62 2.09 2.13 2.39 2.07 1.40 1.08 1.10 1.31 1.77 1.75 2.41 2.51 2.05 2.34 1.70 1.71 1.81 1.88 1.83 2.10 2.10 1.96 1.92 1.83 1.61 2.41 1.83 1.42 1.26 1.13 1.07 1.35 1.56 1.01 0.83 0.64 0.77 0.50 0.29 0.35 0.49 0.56 0.67 0.64 0.51 0.58 0.25 0.35 0.28 0.51 0.20 0.46 0.41 0.23 0.28 0.22 0.39 0.33
0.00 0.00 0.02 0.08 0.67 0.36 0.54 0.48 0.54 0.28 0.23 0.27 0.03 0.02 0.31 0.30 0.76 0.68 0.48 0.41 0.59 0.64 0.54 0.48 0.42 0.42 0.30 0.52 0.58 0.59 0.42 0.45 0.65 0.91 1.20 1.25 1.40 1.19 0.73 1.18 1.56 1.77 1.02 0.88 1.54 1.66 1.15 1.55 1.61 1.73 2.11 2.46 2.05 2.43 1.68 1.62 1.79 1.39 1.99 1.44 1.64 1.64 1.64 1.46 2.23 1.64 1.56 1.43 1.10 1.19 1.15 0.87 0.72 0.66 0.26 0.44 0.32 0.45 0.37 0.58 0.38 0.35 0.62 0.57 0.63 0.79 0.84 0.55 0.31 0.47 0.56 0.27 0.59 0.43 0.31 0.32 0.27
0.01 0.02 0.06 0.05 0.19 0.57 0.12 0.21 0.09 0.09 0.09 0.08 0.17 0.20 0.26 0.73 0.77 0.49 0.66 0.38 0.45 0.40 0.38 0.29 0.41 0.29 0.25 0.41 0.72 0.72 0.52 0.52 0.65 0.85 1.22 0.89 0.89 0.98 0.90 0.76 0.76 1.06 1.46 1.49 2.01 1.62 1.57 1.77 1.45 1.32 1.84 2.35 1.77 1.83 1.68 1.84 1.73 1.23 1.10 1.46 1.30 1.56 1.42 1.89 1.81 1.24 1.08 1.38 0.99 0.95 0.81 0.67 0.61 0.45 0.26 0.23 0.52 0.37 0.33 0.53 0.74 0.29 0.33 0.35 0.51 0.64 0.50 0.53 0.60 0.93 0.43 0.35 0.35 0.82 0.73 0.81 0.66
0.03 0.04 0.01 0.08 0.03 0.13 0.14 0.09 0.18 0.18 0.37 0.25 0.09 0.10 0.72 0.42 2.66 0.64 0.30 0.39 0.62 0.66 0.63 0.29 0.19 0.30 0.15 0.19 0.23 0.44 0.83 1.04 0.63 0.80 1.26 0.93 0.73 1.13 1.37 1.09 1.19 0.91 1.17 1.34 1.88 1.91 1.51 1.82 1.61 1.57 1.49 2.09 1.57 1.53 2.34 1.64 0.93 1.72 1.40 1.54 1.65 1.77 1.37 1.90 1.56 1.38 1.26 1.50 1.23 0.67 0.69 0.71 0.50 0.40 0.17 0.26 0.38 0.33 0.17 0.54 0.37 0.42 0.26 0.26 0.51 0.50 0.30 0.24 0.36 0.49 0.46 0.43 0.96 0.89 0.68 0.58 0.72
0.00 0.01 0.00 0.02 0.08 0.00 0.07 0.10 0.06 0.13 0.25 0.18 0.34 0.46 0.63 1.08 0.43 0.84 0.32 0.19 0.38 0.45 0.79 0.55 0.29 0.39 0.26 0.25 0.18 0.16 0.23 0.94 1.01 0.88 1.57 1.37 1.43 1.12 1.41 1.31 0.73 0.91 0.87 0.85 1.34 1.52 1.12 1.27 1.64 1.69 1.15 1.15 1.24 1.56 1.46 1.38 1.21 1.05 1.62 1.93 1.54 2.10 2.01 1.92 1.58 1.38 1.29 1.13 1.15 0.99 0.70 0.58 0.33 0.32 0.20 0.10 0.08 0.10 0.22 0.17 0.26 0.19 0.24 0.33 0.61 0.63 0.54 0.30 0.41 0.38 0.31 0.46 0.59 1.13 1.04 0.52 0.46
0.13 0.02 0.03 0.03 0.00 0.00 0.02 0.03 0.01 0.07 0.08 0.15 0.09 0.21 0.61 0.70 0.53 0.41 0.96 0.64 0.50 0.38 0.53 0.73 0.48 0.63 0.55 0.35 0.80 0.40 0.38 0.74 1.73 1.40 1.52 1.67 2.23 1.84 1.34 1.33 1.12 1.28 1.15 1.10 1.48 1.41 1.33 1.41 1.53 1.54 1.39 1.80 1.32 1.25 1.29 1.80 1.42 1.24 1.02 1.21 1.72 1.53 1.99 2.02 2.00 1.77 1.33 1.62 1.30 1.01 0.71 0.43 0.49 0.48 0.35 0.15 0.11 0.08 0.14 0.19 0.14 0.15 0.34 0.27 0.31 0.41 0.25 0.36 0.34 0.41 0.24 0.33 0.39 0.49 0.41 0.45 0.73
0.02 0.03 0.14 0.01 0.00 0.00 0.01 0.16 0.15 0.13 0.21 0.60 0.12 0.51 0.83 0.33 1.88 0.42 0.58 0.88 0.84 0.53 1.09 0.89 0.58 0.66 0.78 0.81 0.40 0.39 0.69 0.70 1.59 1.84 2.83 2.82 2.81 2.16 1.92 1.63 1.08 1.31 1.24 1.11 1.13 1.53 1.59 1.52 1.51 2.05 1.72 0.95 1.86 1.23 1.20 1.36 1.43 1.08 1.31 1.73 1.65 1.76 1.78 2.20 2.00 1.61 1.81 1.47 1.18 0.79 0.72 0.92 0.45 0.36 0.18 0.25 0.19 0.13 0.25 0.16 0.22 0.24 0.20 0.34 0.38 0.28 0.22 0.17 0.36 0.44 0.37 0.39 0.44 0.44 0.62 0.67 0.55
0.00 0.01 0.01 0.03 0.25 0.09 0.04 0.00 0.09 0.16 0.25 0.34 0.21 0.30 0.43 0.43 1.01 0.63 0.53 0.61 0.51 0.70 0.45 0.62 0.56 0.63 0.88 0.97 1.18 0.93 0.85 0.67 0.71 1.34 2.00 1.76 2.01 2.82 2.32 2.18 1.65 1.56 1.93 2.07 1.42 1.19 1.31 1.81 2.25 2.41 2.43 1.89 1.88 2.32 1.38 1.38 1.51 1.33 1.18 1.39 1.57 1.50 1.29 1.52 1.58 1.80 1.55 1.18 0.90 0.70 0.62 0.58 0.42 0.31 0.24 0.22 0.25 0.33 0.31 0.18 0.30 0.62 0.58 0.27 0.26 0.28 0.44 0.38 0.55 0.64 0.54 0.47 0.44 0.58 0.76 0.65 0.41
0.00 0.00 0.04 0.00 0.01 0.05 0.21 0.11 0.33 0.02 0.31 0.06 0.84 0.59 1.14 0.79 0.97 0.46 1.02 0.54 0.67 0.40 0.36 0.49 0.53 0.70 0.52 0.98 0.81 0.64 0.51 0.58 0.98 1.58 2.20 2.18 1.93 2.11 1.96 1.88 1.68 1.92 2.03 1.09 1.26 1.73 1.16 1.93 1.96 2.17 2.40 2.24 2.57 2.28 1.98 1.57 1.19 1.29 1.12 1.30 1.40 1.52 1.40 1.45 1.58 1.58 1.41 0.93 0.83 1.00 0.60 0.56 0.37 0.32 0.27 0.27 0.39 0.71 1.30 0.78 0.95 0.69 0.64 0.37 0.50 0.64 0.96 0.90 0.72 0.69 0.52 0.42 0.52 0.59 0.49 0.49 0.51
0.04 0.01 0.03 0.03 0.01 0.06 0.03 0.04 0.05 0.18 0.33 0.13 0.34 0.85 1.35 1.10 1.38 1.15 1.06 1.00 1.01 0.92 0.51 0.63 0.43 0.54 0.59 0.72 0.95 0.53 0.40 0.43 0.34 0.85 1.36 1.53 1.58 1.67 1.78 1.15 1.26 1.77 2.14 2.07 2.14 1.15 1.30 1.60 2.03 1.91 1.91 1.40 2.07 2.09 1.99 1.82 2.29 1.94 1.78 1.16 1.36 1.65 1.49 1.24 1.41 1.23 1.32 0.96 1.11 0.79 0.62 0.59 1.20 0.42 0.54 0.73 0.60 0.87 0.90 0.93 0.63 0.50 0.49 0.47 0.95 0.74 0.68 0.58 0.78 1.01 0.66 0.38 0.40 0.72 0.71 0.54 0.45
0.06 0.12 0.25 0.06 0.10 0.16 0.09 0.36 0.01 0.03 0.05 0.12 0.22 0.79 0.76 0.88 0.41 0.82 0.68 0.92 0.99 0.49 0.48 0.48 0.53 0.43 0.58 0.64 0.87 0.78 0.54 0.30 0.23 0.29 0.37 0.84 0.97 1.19 1.10 1.53 1.49 1.98 1.57 2.14 1.31 1.16 1.74 1.72 1.78 1.58 1.74 2.06 2.27 1.88 2.33 3.18 2.44 2.69 2.41 1.73 1.33 1.61 1.99 1.93 1.76 1.63 1.21 1.04 0.91 0.89 0.78 0.80 0.65 0.94 1.12 0.71 0.43 0.27 0.42 0.49 0.66 0.60 0.61 1.15 1.02 0.82 0.98 0.68 0.79 1.01 0.87 0.52 0.44 0.61 0.56 0.37 0.37